STARLINK-32921, 62920

Orbit data source: Space-Track

STARLINK-32921, 62920 is a payload satellite owned by SpaceX/Seattle (US) in LEO that was launched on Sat, 08 Feb 2025 UTC via an FALCON 9 launch vehicle from the Air Force Eastern Test Range (AFETR). Payload-class satellites include a variety of spacecraft equipped with specific instruments for various scientific and technological missions. These include communications satellites like Starlink; space stations such as the ISS; scientific satellites like the Hubble; Earth observation satellites from companies like Planet Labs, Umbra, and HawkEye 360; GPS; miniature CubeSats for education and research; and military/defense satellites.

Loading next visibility...
Identifier
62920, 2025-027P
Orbit
LEO
Last TLE update
2 hours ago
Origin
Manufacturer
SpaceX/Seattle
Mission
Operational Commercial Communications
Bus & Motor
STARLINK V2M, Unknown motor
Mass
730 kg wet, ~700 kg dry
Launch date (UTC)
2025-02-08 (5 months ago)
Launch vehicle
FALCON 9
Launch site
Air Force Eastern Test Range (AFETR)
Object type
Payload
Rocket body
Debris
Shape & HBR
Box + 2 Pan, 29 m
Radar Cross Section
33.884 m², Large (>1 m²)

Expand to show TLE details & history

TLE from 2 hours ago
0 STARLINK-32921
1 62920U 25027P   25182.21211442  .00008712  00000-0  32580-3 0  9999
2 62920  42.9993 108.9474 0001439 271.6640  88.4047 15.27573686 23087
Epoch: 2025-07-01T05:05Z
TLE epoch observation values (Epoch: 2025-07-01T05:05:26.685Z)
Latitude
-0.00002°
Longitude
113.07538°
Altitude
482.816 km
Speed
7.626 km/s
True Right ascension
07h 15m 47s
True Declination
0° 00' 00"
Sunlit
Object was in daylight at epoch
Visualization orbit readout
Latitude
38.3441°
Longitude
-124.93225°
Altitude
486.095 km
Speed
7.627 km/s
Apparent Right ascension
11h 28m 33s
Apparent Declination
2° 08' 24"
Sunlit
Object is in daylight
Visualization observer readout
Local Sidereal Time
18:47:33
Azimuth
284.619° WNW
Elevation
-13.594°
Doppler factor
1
Orbital elements
Apogee altitude
486.001 km
Perigee altitude
484.026 km
Semi-major axis
6,863.15 km
Eccentricity
0.00014
Inclination
42.9993°
RAAN
108.9474°
Arg. of periapsis
271.664°
True anomaly
Unknown
Mean anomaly
88.4047°
Eccentric anomaly
Unknown
Mean motion
3.81731 °/min
Orbital period
94.31 mins
BSTAR
0.0003258
Loading maneuver chart data...
Loading SW <> Apogee altitude chart data...
Loading historical data...
Loading historical data...
Loading historical data...
Loading historical data...
Loading historical data...
Loading historical data...
Loading historical data...

STARLINK-32921 Visibility forecast

Observer location: undefined°, undefined°

Span
Click to sort rows by Start time (UTC) header in descending order
Start Az.
Max El. time (UTC)
Max El. Az.
Max El.
End time (UTC)
End Az.
6 mins2025-07-01 22:33:38.798Z223.153° SW2025-07-01 22:36:38.798Z163.742° S34.434°2025-07-01 22:39:38.798Z84.225° E
5 mins2025-07-02 00:13:38.798Z273.706° WNW2025-07-02 00:15:38.798Z336.507° NNW41.399°2025-07-02 00:18:38.798Z68.396° E
6 mins2025-07-02 01:52:38.798Z294.17° NW2025-07-02 01:54:38.798Z342.075° N38.618°2025-07-02 01:58:38.798Z86.477° E
6 mins2025-07-02 03:31:38.798Z278.927° WNW2025-07-02 03:33:38.798Z233.304° WSW39.721°2025-07-02 03:37:38.798Z124.626° SE
|